Zurück zum Katalog

STARLINK-3287

AktivKommunikationVLEO
NORAD 50172·PAYLOAD·🇺🇸 United States

Gestartet Dec 18, 2021 von Vandenberg Space Force Base

Loading…

Nächste Überflüge (nächste 24 Stunden)

TLE

AktuellSource: CelesTrak SupGP

Epoche: Sep 15, 2026, 02:08 UTC

1 50172C 21125S   26258.08937500  .00028562  00000+0  84380-3 0  2587
2 50172  53.1582 108.6679 0001267  83.4716 230.0400 15.34378821    15

Verfolge STARLINK-3287 in Echtzeit mit AllMySat

Download on the App Store